Terug naar catalogus

STARLINK-34481

ActiefCommunicatieVLEO
NORAD 65104·PAYLOAD·🇺🇸 United States

Gelanceerd Aug 4, 2025 vanaf Cape Canaveral Space Force Station

Loading…

Volgende Passages (komende 24 uur)

TLE

VersSource: CelesTrak SupGP

Epoch: Sep 15, 2026, 02:29 UTC

1 65104C 25167AC  26258.10395833 -.00048655  00000+0 -14374-2 0  2580
2 65104  53.1572 219.0851 0001473  97.1643 103.5539 15.34416516    15

Volg STARLINK-34481 in realtime met AllMySat

Download on the App Store